Theta_e
292 292 291 289 287 286 285 283 280 280 280 280 281 280 281 281 280 280 280 279 279 279
291 290 289 287 286 284 283 282 280 281 280 280 280 280 280 280 279 279 279 279 278 278
290 289 287 285 284 283 282 282 281 280 280 279 279 279 279 279 279 278 278 279 278 277
288 287 285 284 283 283 282 280 280 280 280 280 279 279 279 279 278 278 278 278 277 276
287 285 284 284 283 282 281 280 280 280 279 279 279 279 279 278 278 278 277 277 276 275
285 284 284 282 282 281 280 279 280 280 280 279 279 279 279 279 278 277 277 276 275 275
284 284 283 282 281 281 280 279 279 280 280 279 279 278 278 277 277 277 277 276 276 275
284 284 283 282 281 280 280 280 280 279 279 278 278 278 277 277 277 277 276 276 276 275
284 283 282 281 280 279 279 279 279 278 278 277 278 282 283 279 277 277 276 275 275 276
283 282 281 281 280 279 279 279 278 278 278 277 277 284 284 282 277 277 276 276 276 275
282 282 280 280 279 279 279 278 278 278 278 278 277 284 285 283 277 276 276 276 276 275
282 281 280 279 279 279 279 278 278 278 277 278 277 284 285 284 279 277 276 276 275 275
282 281 280 280 279 279 279 279 278 278 278 278 278 284 285 284 279 277 277 276 276 278
282 281 281 281 280 279 279 278 277 277 277 278 278 279 285 285 279 279 277 276 275 276
Wind_Speed
11 8 8 9 8 7 9 9 7 6 6 7 7 7 7 7 6 6 6 8 5 5
11 11 10 9 8 6 6 8 9 9 9 7 7 7 7 7 6 6 5 6 6 6
12 12 11 10 10 10 9 11 11 9 8 7 6 7 8 6 5 7 4 4 6 5
10 10 11 11 11 11 11 10 11 10 10 9 8 7 8 7 7 8 6 4 6 6
11 12 12 11 11 11 12 10 11 10 10 8 8 7 8 9 7 8 8 7 7 7
12 12 13 12 12 12 11 10 9 11 11 11 10 9 7 6 7 6 7 7 7 7
13 13 13 12 12 13 12 12 11 10 10 10 10 8 8 7 7 6 5 5 6 7
12 12 12 13 13 12 12 12 12 10 8 9 9 8 9 8 7 7 6 5 5 5
13 13 13 13 14 12 11 9 10 9 10 10 7 16 17 11 7 6 7 6 5 5
13 13 13 12 14 14 14 12 11 10 11 10 7 17 17 14 6 6 6 6 6 5
14 14 13 14 14 13 12 13 12 11 10 9 7 17 15 13 5 5 6 6 6 5
14 14 14 15 14 12 11 10 10 8 9 9 6 16 14 12 7 5 6 5 6 6
12 13 14 13 12 9 10 9 7 8 7 8 8 15 14 14 4 6 5 5 6 13
7 8 8 9 7 9 9 9 8 8 6 7 7 8 15 16 5 7 6 6 5 5
Wind_Direction
162 163 165 164 161 168 162 152 146 131 132 134 129 124 112 108 105 108 115 117 101 112
165 161 164 153 157 145 144 140 143 143 144 136 125 121 118 119 113 113 107 114 117 116
167 160 155 148 157 156 151 150 151 141 137 131 123 121 118 109 103 112 106 124 125 112
166 160 159 163 161 161 156 153 153 147 145 142 133 123 114 121 130 132 136 136 129 112
166 161 166 171 167 158 160 154 154 143 141 136 139 138 141 146 152 153 154 148 128 129
169 171 173 168 166 165 158 152 152 149 152 153 154 151 148 150 159 161 158 151 143 149
177 175 173 170 169 167 164 158 159 161 155 154 151 151 150 153 157 159 148 156 158 162
174 177 168 168 168 166 167 165 161 152 151 149 156 160 156 161 167 152 160 168 175 179
172 169 173 166 164 159 157 153 150 160 162 162 169 177 176 161 154 169 171 182 196 195
169 167 171 164 158 162 164 156 168 166 169 175 166 179 180 174 155 179 185 186 188 203
168 165 164 165 167 165 163 164 170 171 171 166 175 182 173 175 172 196 196 195 191 201
170 165 167 168 168 161 156 166 172 167 161 163 159 176 179 189 180 210 217 199 196 202
167 163 172 165 161 156 153 153 155 153 164 164 167 181 195 210 163 199 219 212 210 218
145 146 155 139 135 142 143 138 153 154 161 176 172 186 212 221 190 212 216 221 220 216